Printer-friendly version
Follow the MPC on Twitter Follow the MPC on Facebook The MPC blog
Minor Planet Center

MPEC 2010-P58 : 2010 PM58

The following Minor Planet Electronic Circular may be linked-to from your own Web pages, but must not otherwise be redistributed electronically.

A form allowing access to any MPEC is at the bottom of this page.


Read MPEC 2010-P57 Read MPEC 2010-P59


M.P.E.C. 2010-P58                                Issued 2010 Aug. 13, 17:04 UT

     The Minor Planet Electronic Circulars contain information on unusual
         minor planets and routine data on comets.  They are published
   on behalf of Commission 20 of the International Astronomical Union by the
          Minor Planet Center, Smithsonian Astrophysical Observatory,
                          Cambridge, MA 02138, U.S.A.

             Prepared using the Tamkin Foundation Computer Network

                              MPC@CFA.HARVARD.EDU
       URL http://www.minorplanetcenter.org/iau/mpc.html  ISSN 1523-6714

                                   2010 PM58

Observations:
     K10P58M* S2010 08 01.98623 13 38 16.13 -52 44 27.8          21   R EP058C51
     K10P58M  s2010 08 01.98623 1 - 2737.7783 - 3022.6190 - 5585.0155   EP058C51
     K10P58M  S2010 08 02.11854 13 37 41.82 -52 35 07.5                 EP058C51
     K10P58M  s2010 08 02.11854 1 - 2730.4866 - 3028.6832 - 5585.1192   EP058C51
     K10P58M  S2010 08 02.18462 13 37 24.75 -52 30 26.9                 EP058C51
     K10P58M  s2010 08 02.18462 1 - 2698.5185 - 3013.7680 - 5608.6221   EP058C51
     K10P58M  S2010 08 02.25084 13 37 07.59 -52 25 45.8                 EP058C51
     K10P58M  s2010 08 02.25084 1 - 2724.4631 - 3035.5306 - 5584.2233   EP058C51
     K10P58M  S2010 08 02.31693 13 36 50.54 -52 21 03.2                 EP058C51
     K10P58M  s2010 08 02.31693 1 - 2692.9428 - 3020.6956 - 5607.5385   EP058C51
     K10P58M  S2010 08 02.44923 13 36 16.58 -52 11 35.4                 EP058C51
     K10P58M  s2010 08 02.44923 1 - 2687.4656 - 3027.3776 - 5606.7986   EP058C51
     K10P58M QC2010 08 08.38803 13 12 45.16 -44 14 28.5          21   R EP058E12
     K10P58M QC2010 08 08.39365 13 12 43.80 -44 13 57.0          21   R EP058E12
     K10P58M QC2010 08 08.39890 13 12 42.55 -44 13 27.7                 EP058E12
     K10P58M QC2010 08 13.37662 12 54 50.05 -36 03 39.3          21   V EP058E12
     K10P58M QC2010 08 13.38699 12 54 47.69 -36 02 31.6                 EP058E12

Observer details:
C51 WISE.  Measurers A. K. Mainzer, E. L. Wright, J. M. Bauer, T. Grav,
    J. W. Dailey, J. R. Masiero, R. M. Cutri, R. S. McMillan,
    R. G. Walker. (http://wise.ssl.berkeley.edu/mission_sci.html).
E12 Siding Spring Survey.  Observers G. J. Garradd, R. H. McNaught.  0.5-m
    Uppsala Schmidt + CCD.

Orbital elements:
2010 PM58                                                Earth MOID = 0.0975 AU
Epoch 2010 July 23.0 TT = JDT 2455400.5                 MPC
M 317.15598              (2000.0)            P               Q
n   0.61214179     Peri.   53.70789     +0.88707661     -0.44856724
a   1.3737299      Node   332.45058     +0.31044393     +0.75445780
e   0.4612274      Incl.   13.63193     +0.34164257     +0.47914597
P   1.61           H   21.7           G   0.15           U   7
Residuals in seconds of arc
100801 C51  0.6-  0.1-    100802 C51  0.1-  0.3-    100808 E12  0.1-  0.4+
100802 C51  0.0   0.4+    100802 C51  0.5+  0.5+    100813 E12  0.2+  0.2+
100802 C51  0.4+  0.1+    100808 E12  0.2+  0.5-    100813 E12  0.2-  0.2-
100802 C51  0.0   0.5-    100808 E12  0.1-  0.1+

Ephemeris:
2010 PM58                a,e,i = 1.37, 0.46, 14                  q = 0.7401
Date    TT    R. A. (2000) Decl.     Delta      r     Elong.  Phase     V
2010 08 12    12 59.74   -38 28.1    0.182    0.977    73.3    96.4    21.4
2010 08 14    12 52.69   -34 56.2    0.177    0.962    68.4   101.8    21.6
2010 08 16    12 45.68   -31 09.4    0.173    0.947    63.2   107.4    21.8
2010 08 18    12 38.66   -27 08.2    0.170    0.933    57.8   113.4    22.1
2010 08 20    12 31.58   -22 53.5    0.167    0.919    52.1   119.7    22.4
2010 08 22    12 24.43   -18 27.7    0.166    0.905    46.2   126.2    22.9

Sonia Keys                   (C) Copyright 2010 MPC           M.P.E.C. 2010-P58

Read MPEC 2010-P57 Read MPEC 2010-P59


MPEC number:

Enter an MPEC number in one of the following forms:

  • 1997-B01 (the full form)
  • J97B01 (the packed version of the full form)
  • B01 (the abbreviated form)

Valid HTML 4.01!